Location: Newark
(23.1300°N, 73.6109°E)
Time: 08:16:55
(UTC+00:00)

Hubble Space Telescope - Pass Details

Date: 25 July 2021
Orbit: 535 x 539 km, 28.5° (Epoch: 26 September)

Event Time Altitude Azimuth Distance (km) Brightness Sun altitude
Rises 15:42:02 0° 278° (W) 2,665 5.3 -23.3°
Reaches altitude 10° 15:44:24 10° 286° (WNW) 1,775 4.4 -23.8°
Maximum altitude 15:48:15 39° 356° (N) 806 1.9 -24.5°
Enters shadow 15:48:46 37° 15° (NNE) 833 1.8 -24.6°
